When you browse on this site, cookies collect data to enhance your experience and personalize the content and advertising you see.
Visit our Privacy Policy to learn more. By continuing to use the site, you agree to this use of cookies and data.
  • In Hungary
  • List of Countries
  • For 7 days
  • Water Temperature
  • Weather Map
  • News
  • Weather Widgets
  • user-avatar
    Login

    Hourly Weather Perevoz

    Today, 8 April, Wednesday

    Time Temperature Precipitation Wind Pressure Humidity
    00:00 +8°C° 0 mm 5 mps 754 mmHg 65%
    01:00 +8°C° 0 mm 5 mps 753 mmHg 69%
    02:00 +8°C° 0 mm 6 mps 753 mmHg 73%
    03:00 +7°C° 0 mm 6 mps 753 mmHg 76%
    04:00 +5°C° 0 mm 6 mps 753 mmHg 78%
    05:00 +4°C° 0 mm 6 mps 753 mmHg 80%
    06:00 +5°C° 0 mm 6 mps 754 mmHg 77%
    07:00 +5°C° 0 mm 6 mps 754 mmHg 73%
    08:00 +6°C° 0 mm 7 mps 754 mmHg 70%
    09:00 +7°C° 0 mm 6 mps 755 mmHg 68%
    10:00 +8°C° 0 mm 6 mps 755 mmHg 66%
    11:00 +8°C° 0 mm 6 mps 755 mmHg 64%
    12:00 +9°C° 0 mm 6 mps 755 mmHg 61%
    13:00 +10°C° 0 mm 5 mps 756 mmHg 58%
    14:00 +10°C° 0 mm 5 mps 756 mmHg 55%
    15:00 +12°C° 0 mm 4 mps 756 mmHg 55%
    16:00 +12°C° 0 mm 4 mps 755 mmHg 55%
    17:00 +12°C° 0 mm 3 mps 755 mmHg 54%
    18:00 +10°C° 0 mm 3 mps 755 mmHg 59%
    19:00 +9°C° 0 mm 2 mps 755 mmHg 65%
    20:00 +7°C° 0 mm 2 mps 755 mmHg 70%
    21:00 +7°C° 0 mm 2 mps 755 mmHg 70%
    22:00 +6°C° 0 mm 2 mps 755 mmHg 71%
    23:00 +7°C° 0 mm 1 mps 755 mmHg 71%

    Tomorrow, 9 April, Thursday

    Time Temperature Precipitation Wind Pressure Humidity
    00:00 +5°C° 0 mm 2 mps 754 mmHg 72%
    01:00 +5°C° 0 mm 2 mps 754 mmHg 73%
    02:00 +4°C° 0 mm 2 mps 753 mmHg 74%
    03:00 +4°C° 0 mm 2 mps 753 mmHg 75%
    04:00 +4°C° 0 mm 2 mps 752 mmHg 77%
    05:00 +2°C° 0 mm 3 mps 752 mmHg 78%
    06:00 +3°C° 0 mm 3 mps 751 mmHg 73%
    07:00 +5°C° 0 mm 4 mps 751 mmHg 67%
    08:00 +6°C° 0 mm 4 mps 750 mmHg 62%
    09:00 +8°C° 0 mm 5 mps 749 mmHg 59%
    10:00 +9°C° 0 mm 5 mps 749 mmHg 56%
    11:00 +10°C° 0 mm 5 mps 748 mmHg 53%
    12:00 +11°C° 0 mm 6 mps 748 mmHg 51%
    13:00 +13°C° 0 mm 6 mps 747 mmHg 49%
    14:00 +14°C° 0 mm 6 mps 746 mmHg 47%
    15:00 +13°C° 0.4 mm 5 mps 746 mmHg 59%
    16:00 +10°C° 0.4 mm 5 mps 745 mmHg 70%
    17:00 +10°C° 0.4 mm 4 mps 745 mmHg 82%
    18:00 +10°C° 0.6 mm 4 mps 744 mmHg 85%
    19:00 +8°C° 0.6 mm 4 mps 744 mmHg 88%
    20:00 +8°C° 0.6 mm 3 mps 744 mmHg 90%
    21:00 +8°C° 0.1 mm 3 mps 744 mmHg 90%
    22:00 +6°C° 0.1 mm 4 mps 745 mmHg 90%
    23:00 +6°C° 0.1 mm 4 mps 745 mmHg 91%

    Day after tomorrow, 10 April, Friday

    Time Temperature Precipitation Wind Pressure Humidity
    00:00 +5°C° 0.1 mm 4 mps 745 mmHg 87%
    01:00 +4°C° 0.1 mm 4 mps 745 mmHg 83%
    02:00 +3°C° 0.1 mm 4 mps 745 mmHg 80%
    03:00 +1°C° 0 mm 4 mps 746 mmHg 80%
    04:00 0°C° 0 mm 4 mps 746 mmHg 80%
    05:00 -1°C° 0 mm 4 mps 747 mmHg 79%
    06:00 -1°C° 0 mm 4 mps 747 mmHg 78%
    07:00 0°C° 0 mm 5 mps 747 mmHg 76%
    08:00 +1°C° 0 mm 5 mps 748 mmHg 75%
    09:00 +2°C° 0 mm 5 mps 748 mmHg 69%
    10:00 +3°C° 0 mm 5 mps 748 mmHg 63%
    11:00 +5°C° 0 mm 6 mps 749 mmHg 57%
    12:00 +5°C° 0.1 mm 6 mps 749 mmHg 56%
    13:00 +5°C° 0.1 mm 6 mps 749 mmHg 55%
    14:00 +7°C° 0.1 mm 6 mps 749 mmHg 53%
    15:00 +5°C° 0.1 mm 6 mps 749 mmHg 51%
    16:00 +5°C° 0.1 mm 6 mps 749 mmHg 50%
    17:00 +5°C° 0.1 mm 6 mps 749 mmHg 48%
    18:00 +5°C° 0 mm 5 mps 749 mmHg 53%
    19:00 +4°C° 0 mm 4 mps 750 mmHg 57%
    20:00 +3°C° 0 mm 3 mps 750 mmHg 62%
    21:00 +2°C° 0 mm 3 mps 750 mmHg 63%
    22:00 +1°C° 0 mm 4 mps 750 mmHg 64%
    23:00 0°C° 0 mm 4 mps 750 mmHg 65%

    11 April, Saturday

    Time Temperature Precipitation Wind Pressure Humidity
    00:00 -1°C° 0 mm 4 mps 751 mmHg 69%
    01:00 -1°C° 0 mm 4 mps 751 mmHg 72%
    02:00 -1°C° 0 mm 3 mps 751 mmHg 76%
    03:00 -2°C° 0 mm 4 mps 751 mmHg 75%
    04:00 -3°C° 0 mm 4 mps 752 mmHg 75%
    05:00 -3°C° 0 mm 4 mps 752 mmHg 74%
    06:00 -2°C° 0 mm 4 mps 753 mmHg 70%
    07:00 -1°C° 0 mm 5 mps 753 mmHg 66%
    08:00 -1°C° 0 mm 5 mps 753 mmHg 62%
    09:00 0°C° 0 mm 5 mps 754 mmHg 57%
    10:00 +1°C° 0 mm 5 mps 754 mmHg 53%
    11:00 +2°C° 0 mm 6 mps 754 mmHg 48%
    12:00 +3°C° 0 mm 6 mps 754 mmHg 45%
    13:00 +3°C° 0 mm 6 mps 754 mmHg 42%
    14:00 +5°C° 0 mm 5 mps 755 mmHg 40%
    15:00 +3°C° 0 mm 5 mps 755 mmHg 39%
    16:00 +3°C° 0 mm 5 mps 755 mmHg 39%
    17:00 +4°C° 0 mm 4 mps 755 mmHg 39%
    18:00 +3°C° 0 mm 3 mps 755 mmHg 44%
    19:00 +3°C° 0 mm 2 mps 755 mmHg 50%
    20:00 +2°C° 0 mm 1 mps 755 mmHg 55%
    21:00 +2°C° 0 mm 1 mps 755 mmHg 56%
    22:00 +1°C° 0 mm 1 mps 756 mmHg 57%
    23:00 0°C° 0 mm 0 mps 756 mmHg 57%

    12 April, Sunday

    Time Temperature Precipitation Wind Pressure Humidity
    00:00 +1°C° 0 mm 1 mps 756 mmHg 58%
    01:00 +1°C° 0 mm 1 mps 755 mmHg 59%
    02:00 -1°C° 0 mm 2 mps 755 mmHg 60%
    03:00 -1°C° 0 mm 2 mps 755 mmHg 63%
    04:00 -1°C° 0 mm 2 mps 754 mmHg 66%
    05:00 -2°C° 0 mm 2 mps 754 mmHg 69%
    06:00 0°C° 0 mm 3 mps 754 mmHg 64%
    07:00 0°C° 0 mm 4 mps 754 mmHg 60%
    08:00 +2°C° 0 mm 5 mps 753 mmHg 55%
    09:00 +3°C° 0 mm 6 mps 753 mmHg 52%
    10:00 +4°C° 0 mm 6 mps 752 mmHg 49%
    11:00 +5°C° 0 mm 7 mps 751 mmHg 46%
    12:00 +5°C° 0 mm 7 mps 751 mmHg 48%
    13:00 +6°C° 0 mm 7 mps 750 mmHg 51%
    14:00 +6°C° 0 mm 7 mps 750 mmHg 54%
    15:00 +8°C° 0 mm 7 mps 749 mmHg 56%
    16:00 +8°C° 0 mm 6 mps 748 mmHg 58%
    17:00 +8°C° 0 mm 5 mps 748 mmHg 59%
    18:00 +8°C° 0.1 mm 5 mps 747 mmHg 62%
    19:00 +7°C° 0.1 mm 4 mps 747 mmHg 65%
    20:00 +7°C° 0.1 mm 4 mps 746 mmHg 67%
    21:00 +7°C° 0 mm 5 mps 746 mmHg 67%
    22:00 +7°C° 0 mm 5 mps 746 mmHg 67%
    23:00 +7°C° 0 mm 5 mps 745 mmHg 67%

    13 April, Monday

    Time Temperature Precipitation Wind Pressure Humidity
    00:00 +7°C° 0 mm 5 mps 745 mmHg 68%
    01:00 +7°C° 0 mm 5 mps 745 mmHg 70%
    02:00 +6°C° 0 mm 5 mps 744 mmHg 71%
    03:00 +6°C° 0 mm 5 mps 744 mmHg 71%
    04:00 +6°C° 0 mm 5 mps 744 mmHg 71%
    05:00 +6°C° 0 mm 5 mps 743 mmHg 71%
    06:00 +7°C° 0 mm 5 mps 743 mmHg 69%
    07:00 +8°C° 0 mm 5 mps 743 mmHg 67%
    08:00 +8°C° 0 mm 5 mps 742 mmHg 65%
    09:00 +10°C° 0 mm 6 mps 742 mmHg 59%
    10:00 +13°C° 0 mm 6 mps 741 mmHg 54%
    11:00 +15°C° 0 mm 7 mps 741 mmHg 49%
    12:00 +16°C° 0 mm 7 mps 740 mmHg 47%
    13:00 +17°C° 0 mm 7 mps 740 mmHg 46%
    14:00 +18°C° 0 mm 7 mps 739 mmHg 44%
    15:00 +17°C° 0.2 mm 7 mps 739 mmHg 49%
    16:00 +16°C° 0.2 mm 7 mps 738 mmHg 53%
    17:00 +15°C° 0.2 mm 6 mps 738 mmHg 57%
    18:00 +14°C° 0.1 mm 6 mps 737 mmHg 61%
    19:00 +13°C° 0.1 mm 6 mps 737 mmHg 65%
    20:00 +12°C° 0.1 mm 5 mps 737 mmHg 69%
    21:00 +11°C° 0 mm 6 mps 736 mmHg 69%
    22:00 +11°C° 0 mm 6 mps 736 mmHg 68%
    23:00 +10°C° 0 mm 6 mps 735 mmHg 67%
    Show more